KG6S Weather Reports


time (UTC)temp
C
wind
direction
speed
KPH
gust
KPH
rain 1hr
cm
rain 24hr
cm
rain mn
cm
humidity
%
barometer
mb
20260506024549 17 249 3.2 9.7 0.00 0.84 0.64 53 1006.4
20260506023029 18 267 6.4 12.9 0.00 0.84 0.64 51 1006.2
20260506021515 18 255 9.7 17.7 0.00 0.84 0.64 49 1006.0
20260506020103 19 287 6.4 12.9 0.00 0.84 0.64 46 1006.0
20260506013023 20 295 0.0 0.0 0.00 0.94 0.64 43 1005.9
20260506011504 20 297 0.0 0.0 0.00 0.94 0.64 45 1006.1
20260506010059 20 279 1.6 8.0 0.00 0.94 0.64 44 1006.1
20260506004533 20 260 3.2 9.7 0.00 0.99 0.64 47 1006.1
20260506003019 19 113 1.6 8.0 0.00 0.99 0.64 47 1006.2
20260506001611 19 130 4.8 8.0 0.00 0.99 0.64 45 1006.2
20260506000054 18 132 3.2 8.0 0.00 0.99 0.64 46 1006.3
20260505234531 18 123 4.8 9.7 0.00 1.09 0.64 47 1006.4
20260505233012 18 60 0.0 0.0 0.00 1.09 0.64 50 1006.5
20260505231607 18 123 6.4 12.9 0.00 1.09 0.64 50 1006.7
20260505230101 18 127 3.2 12.9 0.00 1.09 0.64 50 1006.8
20260505224603 17 11 1.6 6.4 0.00 1.09 0.64 52 1007.0
20260505223048 17 320 6.4 9.7 0.00 1.09 0.64 51 1007.2
20260505221520 17 293 0.0 0.0 0.00 1.09 0.64 55 1007.3
20260505220113 17 336 0.0 6.4 0.00 1.09 0.64 54 1007.5
20260505214559 17 329 3.2 8.0 0.00 1.09 0.64 54 1007.6
20260505213037 16 65 3.2 11.3 0.00 1.09 0.64 61 1007.7
20260505211518 16 63 4.8 8.0 0.00 1.09 0.64 59 1007.9
20260505204554 16 108 3.2 11.3 0.00 1.22 0.64 58 1008.3
20260505203034 15 281 4.8 11.3 0.00 1.22 0.64 63 1008.2
20260505201511 15 242 8.0 16.1 0.00 1.22 0.64 67 1008.2
20260505200100 14 236 6.4 11.3 0.00 1.22 0.64 67 1008.4
20260505194542 15 297 6.4 11.3 0.00 1.35 0.64 67 1008.5
20260505193026 14 269 6.4 12.9 0.00 1.35 0.64 68 1008.4
20260505191506 13 141 6.4 14.5 0.00 1.35 0.64 71 1008.6
20260505190100 13 258 8.0 14.5 0.00 1.35 0.64 74 1008.4
20260505184551 12 277 8.0 12.9 0.00 1.45 0.64 74 1008.4
20260505183027 12 217 4.8 11.3 0.00 1.45 0.64 75 1008.4
20260505181506 12 290 4.8 11.3 0.00 1.45 0.64 76 1008.5
20260505174540 11 293 6.4 9.7 0.00 1.45 0.64 79 1008.2
20260505173025 10 279 8.0 11.3 0.00 1.45 0.64 81 1008.1
20260505171508 10 277 8.0 14.5 0.00 1.45 0.64 82 1007.9
20260505170059 9 279 8.0 11.3 0.00 1.45 0.64 83 1007.8
20260505164542 9 265 8.0 12.9 0.00 1.45 0.64 86 1007.8
20260505163027 8 260 9.7 12.9 0.00 1.45 0.64 86 1007.7
20260505161504 8 260 11.3 17.7 0.00 1.45 0.64 87 1007.6
20260505160104 8 260 14.5 19.3 0.00 1.45 0.64 87 1007.5
20260505130105 8 248 8.0 12.9 0.00 1.45 0.64 86 1005.4
20260505121608 7 231 4.8 11.3 0.00 1.45 0.64 89 1005.3
20260505120055 7 275 6.4 11.3 0.00 1.45 0.64 89 1005.3
20260505114532 7 250 6.4 12.9 0.00 1.45 0.64 89 1005.2
20260505113010 7 267 4.8 9.7 0.00 1.45 0.64 89 1005.3
20260505111609 7 260 8.0 12.9 0.00 1.45 0.64 90 1005.3
20260505101507 7 245 11.3 14.5 0.03 1.45 0.64 90 1005.4
20260505100058 7 250 9.7 14.5 0.08 1.45 0.64 90 1005.4
20260505094537 7 258 8.0 12.9 0.08 1.45 0.64 90 1005.7
20260505091604 7 260 1.6 11.3 0.18 1.42 0.61 91 1005.9
20260505090036 7 258 0.0 0.0 0.15 1.37 0.56 91 1006.1
20260505084545 7 241 1.6 6.4 0.23 1.37 0.56 91 1006.1
20260505083030 7 29 0.0 1.6 0.23 1.35 0.53 90 1006.5
20260505081516 7 252 1.6 4.8 0.25 1.24 0.43 90 1006.3
20260505080055 7 253 6.4 11.3 0.41 1.22 0.41 90 1006.2
20260505074538 7 260 6.4 11.3 0.38 1.14 0.33 90 1006.3
20260505073022 7 215 4.8 12.9 0.41 1.12 0.30 90 1006.2
20260505071507 7 276 1.6 3.2 0.33 0.97 0.15 89 1007.0
20260505070106 7 276 0.0 0.0 0.18 0.81 0.00 88 1006.7
20260505064529 7 262 0.0 0.0 0.13 0.76 0.76 86 1006.1
20260505063105 8 232 4.8 8.0 0.08 0.71 0.71 84 1006.2
20260505061529 8 241 4.8 8.0 0.00 0.64 0.64 83 1006.0
20260505060107 8 248 4.8 9.7 0.00 0.64 0.64 84 1005.7
20260505054539 8 245 4.8 9.7 0.00 0.64 0.64 85 1005.8
20260505053004 8 272 1.6 6.4 0.00 0.64 0.64 85 1006.0
20260505051541 8 250 0.0 0.0 0.00 0.64 0.64 85 1005.8
20260505041525 8 227 8.0 17.7 0.03 0.64 0.64 80 1005.8
20260505040106 8 222 11.3 17.7 0.03 0.64 0.64 81 1005.2
20260505034529 8 235 4.8 12.9 0.00 0.61 0.61 83 1005.4
20260505033105 8 229 3.2 6.4 0.00 0.61 0.61 86 1005.7
20260505031527 8 214 3.2 8.0 0.00 0.61 0.61 87 1005.8
20260505030107 8 352 0.0 3.2 0.00 0.61 0.61 85 1005.8